Regional Weather Roundup
Issued by NWS Tampa Bay Area, FL

Current Version | Previous Version | Text Only | Print | Product List | Glossary On
Versions: 1 2 3 4 5 6 7 8 9 10 11 12 13 14 15 16 17 18 19 20 21 22 23 24 25 26 27
000
NZUS99 KTBW 301311
RWRTPA
FLORIDA REGIONAL WEATHER ROUNDUP
NATIONAL WEATHER SERVICE TAMPA BAY RUSKIN FL
900 AM EDT FRI SEP 30 2022

NOTE: "FAIR" INDICATES FEW OR NO CLOUDS BELOW 12,000 FEET WITH NO
SIGNIFICANT WEATHER AND/OR OBSTRUCTIONS TO VISIBILITY.



STATION/POSITION



FLZ042-048>051-055-056-060-061-301400-
EXTRA STATIONS

CITY           SKY/WX    TMP DP  RH WIND       PRES   REMARKS
Everglades Cty NOT AVBL
CRYSTAL RIVER  FAIR      64  55  72 W8        29.84S
EGLIN AFB      CLOUDY    60  49  66 N7        29.96R
CANAVERAL      CLOUDY    66  60  79 NW17      29.77R

$$
FLZ001>010-012>015-301400-
PANHANDLE FLORIDA

CITY           SKY/WX    TMP DP  RH WIND       PRES   REMARKS
PENSACOLA      SUNNY     63  49  60 N12       29.97R
MILTON NAS     PTSUNNY   57  49  74 N8        29.98R
CRESTVIEW      CLOUDY    62  50  64 VRB5      29.98R
VALPARAISO     CLOUDY    61  48  62 N10       29.93R
MARY ESTHER    PTSUNNY   59  49  68 N9        29.95R
PANAMA CITY    FAIR      63  51  65 NW9       29.93R
TYNDALL AFB    SUNNY     65  50  58 N12       29.91S
APALACHICOLA   SUNNY     64  53  67 N10       29.91R

STATION/POSITION


29.2N   88.2W
28.8N   86.0W
28.5N   84.5W

$$
FLZ011-016>039-301400-
NORTH FLORIDA

CITY           SKY/WX    TMP DP  RH WIND       PRES   REMARKS
MARIANNA       SUNNY     63  50  62 MISG      29.92R
TALLAHASSEE    SUNNY     64  50  60 N8        29.89S
CROSS CITY     SUNNY     62  53  71 NW7       29.85S
GAINESVILLE    CLOUDY    65  55  70 NW8       29.84R
MAYPORT NAS    CLOUDY    67  58  72 NW15G22   29.75R
JACKSONVILLE   CLOUDY    66  55  67 NW14G23   29.76R
JAX NAS        CLOUDY    66  55  67 NW14      29.78R
JAX CRAIG      CLOUDY    66  57  72 NW14      29.76R

STATION/POSITION


KEATON BEACH
31.4N   80.9W
ST AUGUSTINE

$$
FLZ040-043>046-052-053-057-058-063-301400-
CENTRAL FLORIDA

CITY           SKY/WX    TMP DP  RH WIND       PRES   REMARKS
OCALA          MOSUNNY   65  56  72 NW9       29.83R
LEESBURG       PTSUNNY   65  58  78 NW8       29.83R
SANFORD        CLOUDY    65  57  75 W10       29.80R
ORLANDO EXEC   CLOUDY    67  57  70 NW10      29.81R
ORLANDO INTL   CLOUDY    65  58  78 NW9       29.81R
KISSIMMEE      MOSUNNY   67  58  72 NW13      29.83R
WINTER HAVEN     N/A    N/A N/A N/A MISG      29.84R
LAKELAND INTL    N/A    N/A N/A N/A MISG        N/A

$$
FLZ041-047-054-059-064-301400-
EAST CENTRAL FLORIDA

CITY           SKY/WX    TMP DP  RH WIND       PRES   REMARKS
DAYTONA BEACH  CLOUDY    66  58  75 W13       29.78R
JFK SPACE CTR  CLOUDY    65  54  65 NW12      29.77R
TITUSVILLE     CLOUDY    70  61  73 NW12G17   29.80R
PATRICK AFB    SUNNY     68  67  99 NW15      29.77R
MELBOURNE      SUNNY     66  60  81 NW12      29.79R
VERO BEACH     SUNNY     67  62  84 NW8       29.81R
FT PIERCE      SUNNY     67  60  78 NW12      29.81R
STUART         MOSUNNY   68  59  73 NW9       29.82R

STATION/POSITION


28.9N   78.5W

$$
FLZ042-048>051-055-056-060-061-301400-
WEST CENTRAL FLORIDA

CITY           SKY/WX    TMP DP  RH WIND       PRES   REMARKS
BROOKSVILLE    SUNNY     68  57  68 NW9       29.85R
TAMPA          SUNNY     68  58  70 N9        29.84R
MACDILL AFB    SUNNY     68  58  70 N6        29.80R
ST PETERSBURG  SUNNY     68  60  75 N7        29.84R
ST PET-WHITTED SUNNY     68  61  78 N9        29.82R
SARASOTA       SUNNY     69  59  70 N7G20     29.83R

STATION/POSITION


CEDAR KEY
28.5N   84.5W
VENICE

$$
FLZ062-065-066-069-070-075>078-301400-
SOUTHWEST FLORIDA AND KEYS

CITY           SKY/WX    TMP DP  RH WIND       PRES   REMARKS
NAPLES           N/A    N/A N/A N/A MISG      29.82R
MARATHON       CLOUDY    74  67  78 NW10      29.80R
KEY WEST NAS   SUNNY     81  70  69 N18       29.80R
KEY WEST INTL  SUNNY     77  71  82 N15G23    29.80S

STATION/POSITION


VENICE
SOMBRERO KEY
LONG KEY

$$
FLZ067-068-071>074-301400-
SOUTHEAST FLORIDA

CITY           SKY/WX    TMP DP  RH WIND       PRES   REMARKS
W PALM BEACH   SUNNY     70  62  76 NW10      29.80R
POMPANO BEACH  SUNNY     71  62  73 NW13      29.79R
FT LAUDER-EXEC SUNNY     72  65  78 NW6       29.79R
FT LAUDERDALE  SUNNY     71  62  73 NW8       29.78S
PEMBROKE PINES SUNNY     70  62  76 NW10      29.81R
OPA LOCKA      SUNNY     70  62  76 NW10      29.80R
MIAMI          MOSUNNY   72  63  73 NW9       29.80R
WEST KENDALL   SUNNY     72  64  76 NW12      29.80R
HOMESTEAD      SUNNY     71  64  80 N8        29.78R

STATION/POSITION


LAKE WORTH
SETTLEMENT POINT

$$



USA.gov is the U.S. government's official web portal to all federal, state and local government web resources and services.